Flag for U.S.A. Weather past 2 weeks in Naples, Florida, U.S.A.

Now
80 °F

Clear.


Feels Like: 85 °F
Forecast: 78 / 89 °F
Wind: 6 mph from Southeast

Location: Naples Municipal

Current Time: Aug 28, 2015 at 1:46:45 AM

Latest Report: Aug 28, 2015 at 12:53 AM


Visibility: 10 mi

Pressure: 29.98 "Hg

Humidity: 85%

Dew point: 75 °F

Location of NaplesLocation

Historic Weather in Naples — Graph

°F

Naples temperature yesterday

Maximum temperature yesterday: 88 °F (at 1:53 PM)
Minimum temperature yesterday: 74 °F (at 2:53 AM)
Average temperature yesterday: 80 °F

Past Weeks' High & Low Weather Summary

 TemperatureHumidityPressure
High94 °F (Aug 23, 1:53 PM)100% (Aug 26, 8:53 PM)30.08 "Hg (Aug 26, 8:53 PM)
Low74 °F (Aug 16, 1:53 AM)52% (Aug 16, 1:53 PM)29.85 "Hg (Aug 24, 6:53 PM)
Average83 °F80%29.98 "Hg
* Reported Aug 12 11:53 PM — Aug 27 11:53 PM, Naples, Weather by CustomWeather, © 2015

Note: Actual official high and low records may vary slightly from our data, if they occured in-between our weather recording intervals... More about our weather records

Advertising

Naples weather history for previous 24 hours

 ConditionsComfort  
Time TempWeatherWind HumidityBarometerVisibility
11:53 PM
Thu, Aug 27
81 °FClear.8 mph82%29.98 "Hg10 mi
10:53 PM82 °FClear.7 mph82%29.98 "Hg10 mi
9:53 PM83 °FClear.5 mph74%29.96 "Hg10 mi
8:53 PM85 °FClear.No wind70%29.94 "Hg10 mi
7:53 PM85 °FPassing clouds.No wind70%29.93 "Hg10 mi
6:53 PM86 °FPassing clouds.No wind65%29.92 "Hg10 mi
5:53 PM86 °FPassing clouds.6 mph61%29.91 "Hg10 mi
4:53 PM85 °FSunny.6 mph65%29.89 "Hg10 mi
3:53 PM85 °FThundershowers. Scattered clouds.9 mph70%29.92 "Hg10 mi
2:53 PM88 °FScattered clouds.7 mph65%29.93 "Hg10 mi
1:53 PM88 °FPassing clouds.7 mph65%29.94 "Hg10 mi
12:53 PM84 °FSunny.No wind70%29.96 "Hg10 mi
11:53 AM80 °FSunny.No wind85%29.97 "Hg9 mi
10:53 AM77 °FThundershowers. Scattered clouds.6 mph85%29.98 "Hg8 mi
9:53 AM79 °FThunderstorms. Partly sunny.3 mph88%29.95 "Hg7 mi
9:03 AM78 °FThundershowers. Passing clouds.10 mph87%29.92 "Hg10 mi
7:53 AM76 °FClear.7 mph91%29.90 "Hg10 mi
6:53 AM76 °FClear.6 mph91%29.89 "Hg10 mi
5:53 AM75 °FClear.3 mph90%29.90 "Hg10 mi
4:53 AM75 °FClear.3 mph90%29.91 "Hg10 mi
3:53 AM74 °FClear.5 mph94%29.91 "Hg10 mi
2:53 AM74 °FClear.7 mph94%29.92 "Hg10 mi
1:53 AM75 °FClear.5 mph90%29.93 "Hg10 mi
Weather by CustomWeather, © 2015

See weather overviewHow to use our weather pages